﻿測定場所 (Monitoring sites),日付 (Measurement date),時間 (Measurement time),線量率 最大値 (max) μGy/h,線量率 最小値 (min) μGy/h,線量率 平均値 (average) μGy/h,
足立 (Adachi),2021-10-17,23:01～24:00,0.0311,0.0270,0.0288,
足立 (Adachi),2021-10-17,22:01～23:00,0.0304,0.0268,0.0289,
足立 (Adachi),2021-10-17,21:01～22:00,0.0311,0.0272,0.0293,
足立 (Adachi),2021-10-17,20:01～21:00,0.0310,0.0273,0.0290,
足立 (Adachi),2021-10-17,19:01～20:00,0.0311,0.0277,0.0293,
足立 (Adachi),2021-10-17,18:01～19:00,0.0313,0.0275,0.0293,
足立 (Adachi),2021-10-17,17:01～18:00,0.0316,0.0278,0.0297,
足立 (Adachi),2021-10-17,16:01～17:00,0.0331,0.0285,0.0303,
足立 (Adachi),2021-10-17,15:01～16:00,0.0369,0.0297,0.0331,
足立 (Adachi),2021-10-17,14:01～15:00,0.0491,0.0352,0.0415,
足立 (Adachi),2021-10-17,13:01～14:00,0.0540,0.0459,0.0505,
足立 (Adachi),2021-10-17,12:01～13:00,0.0587,0.0474,0.0536,
足立 (Adachi),2021-10-17,11:01～12:00,0.0603,0.0505,0.0558,
足立 (Adachi),2021-10-17,10:01～11:00,0.0654,0.0534,0.0597,
足立 (Adachi),2021-10-17,09:01～10:00,0.0608,0.0474,0.0541,
足立 (Adachi),2021-10-17,08:01～09:00,0.0540,0.0416,0.0496,
足立 (Adachi),2021-10-17,07:01～08:00,0.0469,0.0344,0.0387,
足立 (Adachi),2021-10-17,06:01～07:00,0.0354,0.0279,0.0304,
足立 (Adachi),2021-10-17,05:01～06:00,0.0322,0.0272,0.0298,
足立 (Adachi),2021-10-17,04:01～05:00,0.0319,0.0282,0.0299,
足立 (Adachi),2021-10-17,03:01～04:00,0.0320,0.0280,0.0297,
足立 (Adachi),2021-10-17,02:01～03:00,0.0315,0.0279,0.0298,
足立 (Adachi),2021-10-17,01:01～02:00,0.0320,0.0280,0.0300,
足立 (Adachi),2021-10-17,00:01～01:00,0.0316,0.0280,0.0297,
足立 (Adachi),2021-10-16,23:01～24:00,0.0314,0.0279,0.0294,
足立 (Adachi),2021-10-16,22:01～23:00,0.0311,0.0269,0.0290,
足立 (Adachi),2021-10-16,21:01～22:00,0.0320,0.0274,0.0291,
足立 (Adachi),2021-10-16,20:01～21:00,0.0314,0.0274,0.0293,
足立 (Adachi),2021-10-16,19:01～20:00,0.0316,0.0279,0.0296,
足立 (Adachi),2021-10-16,18:01～19:00,0.0311,0.0271,0.0290,
足立 (Adachi),2021-10-16,17:01～18:00,0.0322,0.0275,0.0292,
足立 (Adachi),2021-10-16,16:01～17:00,0.0308,0.0261,0.0288,
足立 (Adachi),2021-10-16,15:01～16:00,0.0310,0.0272,0.0291,
足立 (Adachi),2021-10-16,14:01～15:00,0.0310,0.0274,0.0289,
足立 (Adachi),2021-10-16,13:01～14:00,0.0312,0.0273,0.0288,
足立 (Adachi),2021-10-16,12:01～13:00,0.0325,0.0276,0.0294,
足立 (Adachi),2021-10-16,11:01～12:00,0.0309,0.0276,0.0295,
足立 (Adachi),2021-10-16,10:01～11:00,0.0318,0.0275,0.0296,
足立 (Adachi),2021-10-16,09:01～10:00,0.0331,0.0287,0.0309,
足立 (Adachi),2021-10-16,08:01～09:00,0.0346,0.0295,0.0313,
足立 (Adachi),2021-10-16,07:01～08:00,0.0319,0.0283,0.0301,
足立 (Adachi),2021-10-16,06:01～07:00,0.0326,0.0282,0.0299,
足立 (Adachi),2021-10-16,05:01～06:00,0.0318,0.0283,0.0301,
足立 (Adachi),2021-10-16,04:01～05:00,0.0318,0.0270,0.0298,
足立 (Adachi),2021-10-16,03:01～04:00,0.0310,0.0271,0.0291,
足立 (Adachi),2021-10-16,02:01～03:00,0.0308,0.0275,0.0292,
足立 (Adachi),2021-10-16,01:01～02:00,0.0325,0.0279,0.0292,
足立 (Adachi),2021-10-16,00:01～01:00,0.0315,0.0270,0.0292,
足立 (Adachi),2021-10-15,23:01～24:00,0.0314,0.0275,0.0293,
足立 (Adachi),2021-10-15,22:01～23:00,0.0305,0.0265,0.0288,
足立 (Adachi),2021-10-15,21:01～22:00,0.0305,0.0272,0.0288,
足立 (Adachi),2021-10-15,20:01～21:00,0.0310,0.0267,0.0286,
足立 (Adachi),2021-10-15,19:01～20:00,0.0306,0.0271,0.0289,
足立 (Adachi),2021-10-15,18:01～19:00,0.0311,0.0272,0.0291,
足立 (Adachi),2021-10-15,17:01～18:00,0.0306,0.0268,0.0287,
足立 (Adachi),2021-10-15,16:01～17:00,0.0311,0.0272,0.0288,
足立 (Adachi),2021-10-15,15:01～16:00,0.0314,0.0274,0.0287,
足立 (Adachi),2021-10-15,14:01～15:00,0.0312,0.0272,0.0291,
足立 (Adachi),2021-10-15,13:01～14:00,0.0316,0.0271,0.0290,
足立 (Adachi),2021-10-15,12:01～13:00,0.0313,0.0275,0.0292,
足立 (Adachi),2021-10-15,11:01～12:00,0.0313,0.0264,0.0288,
足立 (Adachi),2021-10-15,10:01～11:00,0.0323,0.0268,0.0290,
足立 (Adachi),2021-10-15,09:01～10:00,0.0306,0.0271,0.0288,
足立 (Adachi),2021-10-15,08:01～09:00,0.0306,0.0267,0.0291,
足立 (Adachi),2021-10-15,07:01～08:00,0.0314,0.0270,0.0290,
足立 (Adachi),2021-10-15,06:01～07:00,0.0320,0.0274,0.0293,
足立 (Adachi),2021-10-15,05:01～06:00,0.0314,0.0274,0.0295,
足立 (Adachi),2021-10-15,04:01～05:00,0.0313,0.0270,0.0294,
足立 (Adachi),2021-10-15,03:01～04:00,0.0318,0.0279,0.0294,
足立 (Adachi),2021-10-15,02:01～03:00,0.0311,0.0266,0.0292,
足立 (Adachi),2021-10-15,01:01～02:00,0.0311,0.0264,0.0292,
足立 (Adachi),2021-10-15,00:01～01:00,0.0319,0.0274,0.0292,
足立 (Adachi),2021-10-14,23:01～24:00,0.0310,0.0273,0.0292,
足立 (Adachi),2021-10-14,22:01～23:00,0.0310,0.0275,0.0291,
足立 (Adachi),2021-10-14,21:01～22:00,0.0320,0.0273,0.0290,
足立 (Adachi),2021-10-14,20:01～21:00,0.0310,0.0266,0.0289,
足立 (Adachi),2021-10-14,19:01～20:00,0.0306,0.0269,0.0288,
足立 (Adachi),2021-10-14,18:01～19:00,0.0313,0.0271,0.0288,
足立 (Adachi),2021-10-14,17:01～18:00,0.0310,0.0258,0.0289,
足立 (Adachi),2021-10-14,16:01～17:00,0.0308,0.0274,0.0290,
足立 (Adachi),2021-10-14,15:01～16:00,0.0312,0.0267,0.0290,
足立 (Adachi),2021-10-14,14:01～15:00,0.0308,0.0271,0.0289,
足立 (Adachi),2021-10-14,13:01～14:00,0.0307,0.0267,0.0288,
足立 (Adachi),2021-10-14,12:01～13:00,0.0311,0.0269,0.0287,
足立 (Adachi),2021-10-14,11:01～12:00,0.0304,0.0271,0.0288,
足立 (Adachi),2021-10-14,10:01～11:00,0.0310,0.0275,0.0291,
足立 (Adachi),2021-10-14,09:01～10:00,0.0309,0.0275,0.0290,
足立 (Adachi),2021-10-14,08:01～09:00,0.0310,0.0275,0.0293,
足立 (Adachi),2021-10-14,07:01～08:00,0.0309,0.0275,0.0289,
足立 (Adachi),2021-10-14,06:01～07:00,0.0308,0.0262,0.0291,
足立 (Adachi),2021-10-14,05:01～06:00,0.0308,0.0271,0.0291,
足立 (Adachi),2021-10-14,04:01～05:00,0.0307,0.0271,0.0289,
足立 (Adachi),2021-10-14,03:01～04:00,0.0311,0.0272,0.0291,
足立 (Adachi),2021-10-14,02:01～03:00,0.0313,0.0273,0.0293,
足立 (Adachi),2021-10-14,01:01～02:00,0.0336,0.0284,0.0303,
足立 (Adachi),2021-10-14,00:01～01:00,0.0373,0.0309,0.0339,
足立 (Adachi),2021-10-13,23:01～24:00,0.0425,0.0350,0.0382,
足立 (Adachi),2021-10-13,22:01～23:00,0.0394,0.0345,0.0366,
足立 (Adachi),2021-10-13,21:01～22:00,0.0389,0.0341,0.0364,
足立 (Adachi),2021-10-13,20:01～21:00,0.0394,0.0322,0.0353,
足立 (Adachi),2021-10-13,19:01～20:00,0.0482,0.0361,0.0418,
足立 (Adachi),2021-10-13,18:01～19:00,0.0531,0.0430,0.0484,
足立 (Adachi),2021-10-13,17:01～18:00,0.0482,0.0396,0.0441,
足立 (Adachi),2021-10-13,16:01～17:00,0.0410,0.0294,0.0340,
足立 (Adachi),2021-10-13,15:01～16:00,0.0343,0.0294,0.0314,
足立 (Adachi),2021-10-13,14:01～15:00,0.0352,0.0308,0.0330,
足立 (Adachi),2021-10-13,13:01～14:00,0.0376,0.0318,0.0345,
足立 (Adachi),2021-10-13,12:01～13:00,0.0386,0.0317,0.0351,
足立 (Adachi),2021-10-13,11:01～12:00,0.0550,0.0357,0.0431,
足立 (Adachi),2021-10-13,10:01～11:00,0.0550,0.0475,0.0511,
足立 (Adachi),2021-10-13,09:01～10:00,0.0573,0.0447,0.0516,
足立 (Adachi),2021-10-13,08:01～09:00,0.0534,0.0412,0.0464,
足立 (Adachi),2021-10-13,07:01～08:00,0.0434,0.0324,0.0369,
足立 (Adachi),2021-10-13,06:01～07:00,0.0474,0.0365,0.0417,
足立 (Adachi),2021-10-13,05:01～06:00,0.0454,0.0306,0.0395,
足立 (Adachi),2021-10-13,04:01～05:00,0.0325,0.0291,0.0308,
足立 (Adachi),2021-10-13,03:01～04:00,0.0337,0.0294,0.0315,
足立 (Adachi),2021-10-13,02:01～03:00,0.0356,0.0303,0.0326,
足立 (Adachi),2021-10-13,01:01～02:00,0.0396,0.0338,0.0367,
足立 (Adachi),2021-10-13,00:01～01:00,0.0409,0.0317,0.0355,
足立 (Adachi),2021-10-12,23:01～24:00,0.0362,0.0299,0.0334,
足立 (Adachi),2021-10-12,22:01～23:00,0.0422,0.0341,0.0373,
足立 (Adachi),2021-10-12,21:01～22:00,0.0388,0.0290,0.0331,
足立 (Adachi),2021-10-12,20:01～21:00,0.0323,0.0286,0.0304,
足立 (Adachi),2021-10-12,19:01～20:00,0.0322,0.0282,0.0303,
足立 (Adachi),2021-10-12,18:01～19:00,0.0333,0.0286,0.0308,
足立 (Adachi),2021-10-12,17:01～18:00,0.0329,0.0285,0.0304,
足立 (Adachi),2021-10-12,16:01～17:00,0.0337,0.0290,0.0310,
足立 (Adachi),2021-10-12,15:01～16:00,0.0367,0.0303,0.0329,
足立 (Adachi),2021-10-12,14:01～15:00,0.0369,0.0310,0.0346,
足立 (Adachi),2021-10-12,13:01～14:00,0.0346,0.0308,0.0323,
足立 (Adachi),2021-10-12,12:01～13:00,0.0346,0.0277,0.0306,
足立 (Adachi),2021-10-12,11:01～12:00,0.0309,0.0273,0.0292,
足立 (Adachi),2021-10-12,10:01～11:00,0.0314,0.0276,0.0293,
足立 (Adachi),2021-10-12,09:01～10:00,0.0321,0.0268,0.0293,
足立 (Adachi),2021-10-12,08:01～09:00,0.0313,0.0272,0.0292,
足立 (Adachi),2021-10-12,07:01～08:00,0.0313,0.0277,0.0295,
足立 (Adachi),2021-10-12,06:01～07:00,0.0318,0.0282,0.0297,
足立 (Adachi),2021-10-12,05:01～06:00,0.0314,0.0280,0.0298,
足立 (Adachi),2021-10-12,04:01～05:00,0.0317,0.0277,0.0295,
足立 (Adachi),2021-10-12,03:01～04:00,0.0318,0.0272,0.0295,
足立 (Adachi),2021-10-12,02:01～03:00,0.0313,0.0278,0.0298,
足立 (Adachi),2021-10-12,01:01～02:00,0.0322,0.0280,0.0299,
足立 (Adachi),2021-10-12,00:01～01:00,0.0312,0.0276,0.0294,
足立 (Adachi),2021-10-11,23:01～24:00,0.0316,0.0274,0.0296,
足立 (Adachi),2021-10-11,22:01～23:00,0.0312,0.0269,0.0291,
足立 (Adachi),2021-10-11,21:01～22:00,0.0308,0.0279,0.0294,
足立 (Adachi),2021-10-11,20:01～21:00,0.0311,0.0270,0.0291,
足立 (Adachi),2021-10-11,19:01～20:00,0.0309,0.0279,0.0294,
足立 (Adachi),2021-10-11,18:01～19:00,0.0313,0.0281,0.0295,
足立 (Adachi),2021-10-11,17:01～18:00,0.0318,0.0271,0.0292,
足立 (Adachi),2021-10-11,16:01～17:00,0.0321,0.0267,0.0293,
足立 (Adachi),2021-10-11,15:01～16:00,0.0312,0.0275,0.0290,
足立 (Adachi),2021-10-11,14:01～15:00,0.0305,0.0276,0.0292,
足立 (Adachi),2021-10-11,13:01～14:00,0.0310,0.0270,0.0290,
足立 (Adachi),2021-10-11,12:01～13:00,0.0312,0.0273,0.0292,
足立 (Adachi),2021-10-11,11:01～12:00,0.0315,0.0265,0.0290,
足立 (Adachi),2021-10-11,10:01～11:00,0.0312,0.0267,0.0293,
足立 (Adachi),2021-10-11,09:01～10:00,0.0317,0.0271,0.0290,
足立 (Adachi),2021-10-11,08:01～09:00,0.0315,0.0260,0.0292,
足立 (Adachi),2021-10-11,07:01～08:00,0.0313,0.0272,0.0294,
足立 (Adachi),2021-10-11,06:01～07:00,0.0313,0.0270,0.0292,
足立 (Adachi),2021-10-11,05:01～06:00,0.0319,0.0276,0.0293,
足立 (Adachi),2021-10-11,04:01～05:00,0.0315,0.0267,0.0292,
足立 (Adachi),2021-10-11,03:01～04:00,0.0318,0.0276,0.0294,
足立 (Adachi),2021-10-11,02:01～03:00,0.0313,0.0273,0.0292,
足立 (Adachi),2021-10-11,01:01～02:00,0.0314,0.0273,0.0295,
足立 (Adachi),2021-10-11,00:01～01:00,0.0314,0.0275,0.0295,
